Hourly Data Report for October 11, 2016

All times are specified in Local Standard Time (LST). Add 1 hour to adjust for Daylight Saving Time where and when it is observed.

BAKER LAKE A
NUNAVUT

64°17'56.000" N
96°04'40.000" W
18.60 m
2300503
71926
YBK

Download Data

Hourly Data (October 2016)
Hourly Data Report for October 11, 2016
Temp Definition
°C
Dew Point Temp Definition
°C
Rel Hum Definition
%
Wind Dir Definition
10's deg

Wind Spd Definition
km/h
Visibility Definition
km
Stn Press Definition
kPa
Hmdx Definition


Wind Chill Definition


Weather Definition


TIME
00:00 Legend Double Dagger -5.9 -7.6 88 25 18 24.1 101.40   -12 Snow
01:00 Legend Double Dagger -5.5 -7.0 89 25 16 24.1 101.38   -11 Snow
02:00 Legend Double Dagger -5.1 -6.6 89 25 18 24.1 101.33   -11 Snow
03:00 Legend Double Dagger -6.0 -7.8 87 26 17 24.1 101.27   -12 Mainly Clear
04:00 Legend Double Dagger -6.0 -7.7 88 23 17 24.1 101.23   -12 LegendNANA
05:00 Legend Double Dagger -5.8 -7.6 87 24 14 24.1 101.18   -11 LegendNANA
06:00 Legend Double Dagger -5.4 -6.9 89 24 15 24.1 101.13   -11 Snow
07:00 Legend Double Dagger -4.7 -6.4 88 25 18 40.2 101.07   -11 Snow
08:00 Legend Double Dagger -4.2 -6.1 87 25 18 32.2 101.02   -10 Snow
09:00 Legend Double Dagger -3.8 -6.1 84 24 20 24.1 100.98   -10 Snow
10:00 Legend Double Dagger -3.6 -5.8 85 24 16 32.2 100.95   -9 Snow
11:00 Legend Double Dagger -2.9 -5.9 80 26 16 32.2 100.93   -8 Snow
12:00 Legend Double Dagger -2.8 -5.6 81 25 17 16.1 100.91   -8 Snow
13:00 Legend Double Dagger -2.8 -5.0 85 25 17 4.8 100.85   -8 Snow
14:00 Legend Double Dagger -2.6 -4.6 86 26 14 9.7 100.80   -7 Snow
15:00 Legend Double Dagger -2.9 -4.9 86 25 19 8.1 100.77   -9 Snow
16:00 Legend Double Dagger -3.4 -5.9 83 26 13 32.2 100.75   -8 Snow
17:00 Legend Double Dagger -4.0 -6.0 86 30 24 32.2 100.74   -11 Snow
18:00 Legend Double Dagger -5.6 -8.2 82 31 16 32.2 100.74   -12 Snow
19:00 Legend Double Dagger -5.8 -7.8 86 30 16 16.1 100.73   -12 Snow
20:00 Legend Double Dagger -6.2 -8.2 86 30 16 16.1 100.72   -12 Snow
21:00 Legend Double Dagger -6.3 -8.4 85 30 14 19.3 100.69   -12 Snow
22:00 Legend Double Dagger -6.5 -8.6 85 30 11 24.1 100.66   -11 Snow
23:00 Legend Double Dagger -7.3 -9.1 87 32 6 24.1 100.65   -10 Snow

Notes on Data Quality.

Legend

  • E = Estimated
  • M = Missing
  • NA = Not Available
  • ‡ = Partner data that is not subject to review by the National Climate Archives
Date modified: